TimeEDT,TemperatureF,Dew PointF,Humidity,Sea Level PressureIn,VisibilityMPH,Wind Direction,Wind SpeedMPH,Gust SpeedMPH,PrecipitationIn,Events,Conditions,WindDirDegrees,DateUTC
12:53 AM,79.0,75.0,88,30.00,10.0,WSW,4.6,-,N/A,,Clear,250,2013-08-04 04:53:00
1:53 AM,78.1,73.9,87,29.99,10.0,West,4.6,-,N/A,,Clear,260,2013-08-04 05:53:00
2:53 AM,77.0,73.0,88,29.98,10.0,West,4.6,-,N/A,,Clear,260,2013-08-04 06:53:00
3:53 AM,77.0,73.0,88,29.97,9.0,WSW,4.6,-,N/A,,Clear,240,2013-08-04 07:53:00
4:53 AM,75.9,73.0,91,29.97,8.0,West,3.5,-,N/A,,Clear,260,2013-08-04 08:53:00
5:53 AM,75.9,73.0,91,29.98,7.0,West,4.6,-,N/A,,Overcast,270,2013-08-04 09:53:00
6:53 AM,75.9,73.0,91,29.99,7.0,West,5.8,-,N/A,,Overcast,260,2013-08-04 10:53:00
7:53 AM,77.0,73.0,88,30.00,7.0,West,5.8,-,N/A,,Overcast,260,2013-08-04 11:53:00
8:53 AM,80.1,72.0,76,30.00,8.0,West,6.9,-,N/A,,Mostly Cloudy,280,2013-08-04 12:53:00
9:53 AM,82.9,73.0,72,30.01,8.0,West,8.1,-,N/A,,Mostly Cloudy,260,2013-08-04 13:53:00
10:53 AM,86.0,73.9,67,30.00,9.0,West,10.4,-,N/A,,Mostly Cloudy,280,2013-08-04 14:53:00
11:53 AM,86.0,73.0,65,30.00,10.0,West,8.1,-,N/A,,Mostly Cloudy,270,2013-08-04 15:53:00
12:53 PM,91.0,73.0,55,29.98,10.0,WSW,10.4,-,N/A,,Mostly Cloudy,250,2013-08-04 16:53:00
1:53 PM,91.0,72.0,53,29.96,10.0,West,13.8,-,N/A,,Scattered Clouds,270,2013-08-04 17:53:00
2:53 PM,91.9,73.0,54,29.94,10.0,West,12.7,-,N/A,,Mostly Cloudy,270,2013-08-04 18:53:00
3:53 PM,91.9,73.9,55,29.92,10.0,West,10.4,-,N/A,,Mostly Cloudy,270,2013-08-04 19:53:00
4:53 PM,91.0,73.9,57,29.92,10.0,WNW,13.8,-,N/A,,Mostly Cloudy,290,2013-08-04 20:53:00
5:53 PM,90.0,73.0,57,29.92,10.0,WNW,8.1,-,N/A,,Mostly Cloudy,290,2013-08-04 21:53:00
6:53 PM,89.1,73.9,61,29.93,10.0,NW,6.9,-,N/A,,Mostly Cloudy,310,2013-08-04 22:53:00
7:53 PM,88.0,73.9,63,29.94,10.0,NW,5.8,-,N/A,,Mostly Cloudy,310,2013-08-04 23:53:00
8:53 PM,82.9,75.9,79,29.96,10.0,Calm,Calm,-,N/A,,Mostly Cloudy,0,2013-08-05 00:53:00
9:53 PM,82.9,75.9,79,29.96,10.0,WSW,3.5,-,N/A,,Mostly Cloudy,250,2013-08-05 01:53:00
10:53 PM,82.0,77.0,85,29.98,9.0,Calm,Calm,-,N/A,,Mostly Cloudy,0,2013-08-05 02:53:00
11:53 PM,81.0,77.0,88,29.99,9.0,Calm,Calm,-,N/A,,Scattered Clouds,0,2013-08-05 03:53:00